Location: Newark
(47.5000°N, 4.6167°E)
Time: 11:13:42
(UTC+00:00)

ISS - Pass Details

Date: 05 December 2021
Orbit: 413 x 422 km, 51.6° (Epoch: 19 January)

Event Time Altitude Azimuth Distance (km) Brightness Sun altitude
Rises 17:41:18 0° 293° (WNW) 2,382 1.0 -17.8°
Reaches altitude 10° 17:43:27 10° 287° (WNW) 1,513 -0.1 -18.2°
Maximum altitude 17:46:43 46° 213° (SSW) 575 -2.8 -18.7°
Enters shadow 17:48:11 27° 155° (SSE) 847 -2.4 -18.9°
